Weather History for Fort Knox, KY

Change the Weather History Date:

Monday, July 1, 2013

  Actual Average Record
Temperature  
Mean Temperature 69 °F -  
Max Temperature 77 °F 83 °F 102 °F (2012)
Min Temperature 62 °F 64 °F 55 °F (2000)
Cooling Degree Days 4    
Growing Degree Days 19 (Base 50)    
Moisture  
Dew Point 65 °F    
Average Humidity 90    
Maximum Humidity 100    
Minimum Humidity 65    
Precipitation  
Precipitation 2.29 in - - ()
Sea Level Pressure  
Sea Level Pressure 29.86 in    
Wind  
Wind Speed 5 mph (NE)    
Max Wind Speed 15 mph    
Max Gust Speed 23 mph    
Visibility 9 miles    
Events Rain , Thunderstorm    
Averages and records for this station are not official NWS values.
T = Trace of Precipitation, MM = Missing Value Source: NWS Daily Summary

Daily Weather History Graph

Daily Weather History Graph

Search for Another Location

Airport:

Trip Planner

Search our weather history database for the weather conditions in past years. The results will help you decide how hot, cold, wet, or windy it might be!

Date:

Astronomy

Jul. 01, 2013 Rise Set
Actual Time 6:25 AM EDT 9:10 PM EDT
Civil Twilight 5:54 AM EDT 9:41 PM EDT
Nautical Twilight 5:15 AM EDT 10:20 PM EDT
Astronomical Twilight 4:30 AM EDT 11:04 PM EDT
Moon 1:50 AM EDT (7/1) 3:28 PM EDT (7/1)
Length of Visible Light 15h 47m
Length of Day
14h 44m
Waning Crescent, 35% of the Moon is Illuminated
Jul 1
Waning Crescent
Jul 8
New
Jul 15
First Quarter
Jul 22
Full
Jul 29
Last Quarter

Hourly Weather History & Observations

Time (EDT) Temp. Dew Point Humidity Pressure Visibility Wind Dir Wind Speed Gust Speed Precip Events Conditions
12:58 AM 64.8 °F 64.8 °F 100% 29.81 in 10.0 mi North 3.5 mph - N/A   Clear
1:58 AM 65.1 °F 64.2 °F 97% 29.80 in 10.0 mi North 8.1 mph - N/A   Mostly Cloudy
2:58 AM 65.5 °F 64.6 °F 97% 29.79 in 10.0 mi NNE 5.8 mph - 0.74 in   Mostly Cloudy
3:58 AM 65.5 °F 64.9 °F 98% 29.78 in 10.0 mi NNE 3.5 mph - N/A   Overcast
4:58 AM 65.7 °F 65.1 °F 98% 29.79 in 10.0 mi NE 5.8 mph - N/A   Overcast
5:58 AM 65.7 °F 65.1 °F 98% 29.80 in 9.0 mi NNE 6.9 mph - N/A   Overcast
6:58 AM 65.7 °F 65.1 °F 98% 29.83 in 9.0 mi South 10.4 mph - N/A Thunderstorm Overcast
7:01 AM 66.2 °F 64.4 °F 94% 29.84 in 10.0 mi South 8.1 mph - N/A Rain , Thunderstorm Light Rain
7:07 AM 66.2 °F 64.4 °F 94% 29.84 in 2.5 mi South 15.0 mph 23.0 mph N/A Rain , Thunderstorm Thunderstorms and Rain
7:16 AM 64.4 °F 62.6 °F 94% 29.84 in 1.5 mi SW 13.8 mph 23.0 mph N/A Rain , Thunderstorm Heavy Thunderstorms and Rain
7:43 AM 62.6 °F 60.8 °F 94% 29.83 in 3.0 mi Variable 2.3 mph - N/A Rain , Thunderstorm Thunderstorms and Rain
7:56 AM 62.2 °F 61.2 °F 96% 29.84 in 3.0 mi South 4.6 mph - 0.75 in Rain , Thunderstorm Thunderstorms and Rain
8:16 AM 62.6 °F 60.8 °F 94% 29.85 in 0.8 mi South 5.8 mph - N/A Rain , Thunderstorm Heavy Thunderstorms and Rain
8:29 AM 62.6 °F 60.8 °F 94% 29.85 in 4.0 mi NE 5.8 mph - N/A Rain , Thunderstorm Thunderstorms and Rain
8:55 AM 63.3 °F 62.6 °F 97% 29.85 in 5.0 mi East 3.5 mph - 0.50 in Rain , Thunderstorm Light Thunderstorms and Rain
9:30 AM 62.6 °F 62.6 °F 100% 29.85 in 5.0 mi East 3.5 mph - N/A Rain Light Rain
9:56 AM 64.0 °F 63.9 °F 99% 29.86 in 7.0 mi ESE 3.5 mph - 0.20 in Rain Light Rain
10:56 AM 64.2 °F 63.9 °F 99% 29.86 in 7.0 mi NNE 2.3 mph - 0.10 in Rain Light Rain
11:10 AM 64.4 °F 62.6 °F 94% 29.87 in 10.0 mi East 1.2 mph - N/A   Mostly Cloudy
11:55 AM 68.0 °F 63.9 °F 87% 29.86 in 10.0 mi North 6.9 mph - 0.00 in   Mostly Cloudy
12:55 PM 70.9 °F 66.4 °F 86% 29.86 in 10.0 mi NNW 4.6 mph - N/A   Mostly Cloudy
1:55 PM 73.6 °F 64.0 °F 72% 29.84 in 10.0 mi NNE 4.6 mph - N/A   Mostly Cloudy
2:58 PM 76.1 °F 63.5 °F 65% 29.83 in 10.0 mi Variable 5.8 mph - N/A   Clear
3:58 PM 76.8 °F 64.4 °F 65% 29.84 in 10.0 mi Variable 5.8 mph - N/A   Clear
4:58 PM 74.7 °F 65.8 °F 74% 29.84 in 10.0 mi West 4.6 mph - N/A   Clear
5:15 PM 73.4 °F 66.2 °F 78% 29.85 in 10.0 mi West 4.6 mph - N/A Thunderstorm Thunderstorm
5:30 PM 73.4 °F 66.2 °F 78% 29.84 in 10.0 mi North 3.5 mph - N/A   Partly Cloudy
5:58 PM 72.0 °F 67.1 °F 85% 29.85 in 10.0 mi West 1.2 mph - N/A   Clear
6:01 PM 71.6 °F 66.2 °F 83% 29.85 in 10.0 mi Calm Calm - N/A Rain Light Rain
6:28 PM 73.4 °F 68.0 °F 83% 29.85 in 10.0 mi SW 2.3 mph - N/A   Scattered Clouds
6:58 PM 73.8 °F 67.1 °F 80% 29.84 in 10.0 mi NE 8.1 mph - N/A   Partly Cloudy
7:58 PM 72.7 °F 66.2 °F 80% 29.86 in 10.0 mi ESE 4.6 mph - N/A   Mostly Cloudy
8:26 PM 71.6 °F 66.2 °F 83% 29.87 in 10.0 mi NNE 5.8 mph - N/A Thunderstorm Thunderstorm
8:27 PM 71.6 °F 66.2 °F 83% 29.87 in 10.0 mi North 6.9 mph - N/A Thunderstorm Thunderstorm
8:35 PM 69.8 °F 66.2 °F 88% 29.87 in 10.0 mi NNE 9.2 mph - N/A   Mostly Cloudy
8:58 PM 69.3 °F 65.8 °F 89% 29.88 in 10.0 mi NNE 5.8 mph - N/A Thunderstorm Mostly Cloudy
9:13 PM 68.0 °F 66.2 °F 94% 29.89 in 10.0 mi NNE 6.9 mph - N/A Thunderstorm Mostly Cloudy
9:18 PM 68.0 °F 66.2 °F 94% 29.89 in 10.0 mi NNE 5.8 mph - N/A Thunderstorm Mostly Cloudy
9:28 PM 68.0 °F 66.2 °F 94% 29.89 in 10.0 mi NNE 5.8 mph - N/A   Mostly Cloudy
9:48 PM 68.0 °F 66.2 °F 94% 29.89 in 10.0 mi NNE 4.6 mph - N/A   Mostly Cloudy
9:58 PM 67.6 °F 65.3 °F 92% 29.89 in 10.0 mi North 3.5 mph - N/A   Scattered Clouds
10:28 PM 66.2 °F 64.4 °F 94% 29.90 in 10.0 mi NE 5.8 mph - N/A   Mostly Cloudy
10:32 PM 66.2 °F 64.4 °F 94% 29.89 in 10.0 mi NE 4.6 mph - N/A   Mostly Cloudy
10:43 PM 68.0 °F 64.4 °F 88% 29.90 in 10.0 mi East 3.5 mph - N/A   Mostly Cloudy
10:58 PM 66.6 °F 64.6 °F 93% 29.89 in 10.0 mi North 2.3 mph - N/A   Scattered Clouds
11:28 PM 66.2 °F 64.4 °F 94% 29.90 in 10.0 mi NE 3.5 mph - N/A   Mostly Cloudy
11:33 PM 66.2 °F 66.2 °F 100% 29.90 in 10.0 mi NE 4.6 mph - N/A   Mostly Cloudy
11:43 PM 66.2 °F 66.2 °F 100% 29.90 in 10.0 mi NE 4.6 mph - N/A   Overcast
11:53 PM 66.2 °F 66.2 °F 100% 29.90 in 10.0 mi NE 2.3 mph - N/A   Overcast
11:58 PM 66.6 °F 65.7 °F 97% 29.90 in 10.0 mi NNE 2.3 mph - N/A   Overcast